Regional Weather Roundup
Issued by NWS Wakefield, VA

Home | Current Version | Previous Version | Graphics & Text | Print | Product List | Glossary On
Versions: 1 2 3 4 5 6 7 8 9 10 11 12 13 14 15 16 17 18 19 20 21 22 23 24 25 26 27 28 29 30 31 32 33 34 35 36 37 38 39 40 41 42 43 44 45 46 47 48 49 50
000
ASUS41 KAKQ 041415
RWRAKQ

REGIONAL WEATHER ROUNDUP
NATIONAL WEATHER SERVICE WAKEFIELD VA
1000 AM EDT SAT JUL 04 2015

Note: "fair" indicates few or no clouds below 12,000 feet with no
significant weather and/or obstructions to visibility. * = Denotes
station may not report precipitation (e.g., rain,snow,etc.),
thunder or fog.

VAZ042-051-052>054-056-041500-
NORTHERN VIRGINIA

CITY           SKY/WX    TMP DP  RH WIND       PRES   REMARKS
WASH NATIONAL  RAIN      73  70  88 CALM      29.92R VSB 1
DULLES         CLOUDY    70  68  93 CALM      29.92S FOG
FORT BELVOIR   CLOUDY    72  70  94 CALM      29.92R
QUANTICO       CLOUDY    75  68  78 CALM      29.92R
FREDERICKSBRG* CLOUDY    76  73  92 CALM      29.91S
STAFFORD*      CLOUDY    74  69  83 CALM      29.96R
WARRENTON      CLOUDY    73  70  92 CALM      29.92R
CULPEPER*      CLOUDY    71  68  89 CALM      29.93S
MANASSAS*      CLOUDY    72  70  94 CALM        N/A  FOG
LEESBURG*      CLOUDY    70  70 100 CALM      29.93S
WINCHESTER     CLOUDY    72  68  88 S5        29.92S
FRONT ROYAL*   CLOUDY    72  66  83 S5        29.91S
LURAY*         PTSUNNY   77  70  78 SW9       29.92F
$$

VAZ048-049-060>072-079>083-041500-
CENTRAL AND SOUTH CENTRAL VIRGINIA

CITY           SKY/WX    TMP DP  RH WIND       PRES   REMARKS
RICHMOND       CLOUDY    75  70  84 W6        29.92R
CHESTERFIELD*  NOT AVBL
PETERSBURG*    CLOUDY    77  74  93 SW9       29.93S
HANOVER        CLOUDY    74  70  87 CALM      29.93S
TAPPAHANNOCK*  PTSUNNY   77  69  75 SW3       29.92R
QUINTON*       NOT AVBL
CHARLOTTSVILLE CLOUDY    73  68  84 S5        29.93R HAZE
GORDONSVILLE*  CLOUDY    72  68  88 S3        29.92F
ORANGE*        CLOUDY    73  70  88 S5        29.94S
LOUISA*        CLOUDY    73  70  88 CALM      29.92S
BUMPASS*       CLOUDY    72  69  89 MISG      29.92S
FARMVILLE*     CLOUDY    76  73  91 SW3       29.92S
CREWE*         CLOUDY    74  70  89 CALM      29.93S
FORT PICKETT*  CLOUDY    74  71  91 SW8       29.94S
CHASE CITY*    CLOUDY    77  75  95 W6        29.95S
CLARKSVILLE*   PTSUNNY   75  72  88 SW8       29.94S
SOUTH HILL*    CLOUDY    74  72  91 SW7       30.00S
LAWRENCEVILLE* NOT AVBL
EMPORIA*         N/A     75  70  83 SW7       29.94S
$$

VAZ088>098-041500-
SOUTHEAST VIRGINIA

CITY           SKY/WX    TMP DP  RH WIND       PRES   REMARKS
NORFOLK        PTSUNNY   79  70  74 SW10      29.90R
VIRGINIA BEACH MOSUNNY   81  71  71 W17       29.89S
NORFOLK NAVAL  PTSUNNY   77  70  79 W12G18    29.92R
WEST POINT*    CLOUDY    76  73  88 W6        29.92R
SALUDA*        CLOUDY    75  72  91 W5        29.89R
NEWPORT NEWS   PTSUNNY   76  71  85 W10       29.90F
LANGLEY AFB    MOSUNNY   77  72  83 W12       29.89R
FORT EUSTIS    CLOUDY    75  75 100 W8        29.89R
WILLIAMSBURG*  MOSUNNY   77  75  94 W7        29.92R
HR EXEC AP*    CLOUDY    77  72  83 SW9       29.94S
FRANKLIN*      CLOUDY    76  72  86 SW7       29.93S
WAKEFIELD      PTSUNNY   77  71  82 VRB6      29.92S
$$

VAZ020-022-025-037-045-041500-
WEST CENTRAL AND SOUTHWEST VIRGINIA

CITY           SKY/WX    TMP DP  RH WIND       PRES   REMARKS
STAUNTON*      PTSUNNY   74  69  83 S7        29.95F
WAYNESBORO*    CLOUDY    70  67  89 CALM      29.95S
HOT SPRINGS VA FOG       64  64 100 W13       30.04S VSB<1/4
LYNCHBURG      PTSUNNY   73  68  84 SW9       29.96S
DANVILLE       MOSUNNY   78  70  76 W7        29.95S
SOUTH BOSTON*  CLOUDY    75  71  88 MISG      29.95S
MARTINSVILLE   PTSUNNY   75  74  95 CALM      30.00R
ROANOKE        PTSUNNY   74  68  81 SW8       29.98S
BLACKSBURG     CLOUDY    70  68  93 W5        30.04S
DUBLIN*        CLOUDY    73  69  87 W7        30.03S
MARION*        CLOUDY    68  65  91 W10G16    30.08R
HILLSVILLE*    CLOUDY    67  63  88 W9G20     30.05R
RICHLANDS*     RAIN      65  65 100 W6        30.07R
WISE*          CLOUDY    68  68 100 W6        30.08S
ABINGDON*      CLOUDY    69  68  97 W5        30.06R
$$

MDZ021>025-VAZ099-100-041500-
SOUTHERN MARYLAND AND THE DELMARVA PENINSULA

CITY           SKY/WX    TMP DP  RH WIND       PRES   REMARKS
PATUXENT RIVER PTSUNNY   77  70  79 N3        29.89S
BAY BRIDGE APT   N/A     75  66  73 E3        29.90R
LEONARDTOWN    PTSUNNY   75  68  78 CALM      29.91S
DOVER          MOSUNNY   77  68  74 E8        29.88S
GEORGETOWN     CLOUDY    74  69  85 NE9       29.89R
EASTON         SUNNY     77  73  88 SE3       29.93S
CAMBRIDGE      PTSUNNY   79  70  73 NW3       29.88S
SALISBURY      CLOUDY    76  71  85 NE8       29.87R
OCEAN CITY     LGT RAIN  73  70  90 NE8       29.85R FOG
WALLOPS ISLAND CLOUDY    76  74  93 NW8       29.86R
ACCOMACK*      CLOUDY    77  73  88 NW10      29.87S
$$

NCZ012>017-030>032-041500-
NORTH CENTRAL AND EASTERN NORTH CAROLINA

CITY           SKY/WX    TMP DP  RH WIND       PRES   REMARKS
ROANOKE RAPIDS PTSUNNY   77  72  83 W12       29.94F
RALEIGH        PTSUNNY   80  70  71 W8G17     29.97S
ELIZABETH CITY PTSUNNY   80  72  76 W15       29.93S
AHOSKIE*       PTSUNNY  N/A N/A N/A CALM      29.94S
EDENTON*       SUNNY     80  70  70 W9G17     29.94S
CURRITUCK*     CLOUDY    77  71  79 W14G22    29.93R
KILL DEVIL HLS SUNNY     82  71  71 W10G20    29.92S
MANTEO         SUNNY     80  70  71 W17G23    29.94S
CAPE HATTERAS  MOSUNNY   80  72  76 SW12      29.98R
TARBORO*         N/A     82  69  66 SW13      29.97R
GOLDSBORO      SUNNY     83  72  69 SW14G22   29.96R
WASHINGTON     SUNNY     81  71  70 W17G24    29.97R
GREENVILLE     MOSUNNY   81  72  74 SW12G21   29.98S
NEW BERN       SUNNY     84  71  65 W15G23    29.99R
WILMINGTON     MOSUNNY   83  67  58 W23G30    30.03R
$$

VAZ048-041500-
ELSEWHERE

CITY           SKY/WX    TMP DP  RH WIND       PRES   REMARKS
HARRISBURG PA  LGT RAIN  66  63  90 CALM      29.94R FOG
BALTIMORE      LGT RAIN  72  68  88 CALM      29.91S FOG
ANNAPOLIS      CLOUDY    75  67  76 CALM      29.91R
ANDREWS AFB    LGT RAIN  70  68  94 CALM      29.91R FOG
PHILADELPHIA   CLOUDY    75  62  64 NE7       29.92R
HENDERSON NC   PTSUNNY   76  68  76 SW9       29.96R
GREENSBORO     PTSUNNY   75  68  78 W9        29.97S
ROCKY MOUNT    MOSUNNY   82  70  66 W12G20    29.96R
$$

VAZ100-041500-
MARINE

STATION/POSITION TIME  TEMP    WIND        PRES    WAVE   SWELL
                       AIR SEA DIR/SP/G            HT/PER HT/PER
                 (UTC) (F)     (DEG/KT/KT) (MB)    (FT/S) (FT/S)
BRANDYWINE LGT   1300   74 74   90/ 13/ 16 1011.8R
CAPE MAY NJ      1300   74 75   80/ 11/ 15 1011.3R
LEWES DE         1300   73 72  100/ 11/ 13 1011.3R
15NM E FENWICK I 1350   72 73              1009.6F   4/ 5
OCEAN-CITY-INLET 1300   73 73   80/  9/ 17 1010.3R
WACHAPREAGUE VA  1300   78 78  270/  2/  4 1011.2R
GOOSES REEF MD   1400   75 77  350/  4/  6 1013.5R
COVE POINT MD    1300   73      20/  2/  5 1012.7R
SOLOMONS ISLAND  1300      79                N/A
BISHOPS HEAD MD  1300   76      10/  4/  6 1011.4R
PINEY POINT MD   1300          350/  3/  3   N/A
CAMBRIDGE MD     1300   74 78   10/  2/  3 1011.8R
LEWISETTA VA     1300   76 79   50/  2/  4 1011.6S
RAPPAHANNOCK LGT 1300          300/ 11/ 12 1012.0R
STINGRAY PT      1400   77 80  300/  8/ 10 1012.1R   1/ 2
YORK RVR RNG VA  1300   75     280/ 16/ 18 1011.2R
YORKTOWN VA      1300   74 79  260/ 11/ 14 1012.0R
JAMESTOWN VA     1400   74 81  280/  8/ 10   N/A
DOMINION TERM VA 1300   74     290/ 11/ 13 1012.1F
KIPTOPEKE VA     1300      81  280/ 18/ 21   N/A
CHES BAY BRIDGE  1300   74 76  260/ 18/ 20 1011.7R
CAPE HENRY VA    1300   75     270/ 11/ 16 1010.6R
CHESAPEAKE LGHT  1300   75     270/ 17/ 19 1012.5R
WILLOUBY STN VA  1300   74     290/ 14/ 15 1013.0R
CAPE HENRY BUOY  1328      76                N/A     3/ 8
1ST LANDING BUOY 1400      76              1011.9F   2/ 3
CAPE CHARLES BUO 1326      74                N/A     4/ 4   2/ 9
OFFSHORE WE BUOY 1311      77                N/A     5/ 4   2/15
64NM E OF VA BCH 1350   77 76  250/ 19/ 25 1011.9R   7/ 8   2/ 9
DUCK PIER NC     1300   78 66  250/ 20/ 26   N/A
44100 DUCK FRF   1324      75                N/A     4/ 8
44056 DUCK FRF   1311      74                N/A     3/ 9   2/15
OREGON INLET NC  1300   78 78  240/ 17/ 21 1013.7S
HATTERAS NC      1300   80 76  250/ 15/ 22 1014.5S
DIAMOND SHLS NC  1350   80 82  240/ 21/ 23 1014.9R   7/ 8   3/ 8
CAPE LOOKOUT NC  1400   82     240/ 18/ 25 1015.6R
$$


USA.gov is the U.S. government's official web portal to all federal, state and local government web resources and services.